カタログに戻る

COSMOS 2251 DEB

運用中LEO
NORAD 33933·DEBRIS·🇷🇺 Russia

打ち上げ Jun 16, 1993 から Plesetsk Cosmodrome

Loading…

次のパス (今後24時間)

TLE

最新Source: Space-Track

元期: Sep 14, 2026, 10:55 UTC

1 33933U 93036EN  26257.45511836  .00000414  00000-0  15331-3 0  9992
2 33933  74.0863 277.3786 0072424 217.2093 142.4029 14.33959432917365

AllMySatでCOSMOS 2251 DEBをリアルタイム追跡

Download on the App Store